Location: Miles
(41.4492°N, 81.6087°W)
Time: 03:49:48
(UTC+00:00)

Tiros 1 despin weight - Pass Details

Date: 16 September 2024
Orbit: 573 x 615 km, 48.2° (Epoch: 04 October)

Event Time Altitude Azimuth Distance (km) Brightness Sun altitude
Rises 08:38:44 0° 246° (WSW) 2,861 - -27.4°
Reaches altitude 10° 08:41:02 10° 248° (WSW) 1,965 - -27.0°
Maximum altitude 08:45:33 75° 334° (NNW) 642 - -26.3°
Exits shadow 08:46:08 64° 30° (NNE) 684 ? -26.2°
Drops below altitude 10° 08:50:08 10° 60° (ENE) 1,984 ? -25.5°
Sets 08:52:27 0° 62° (ENE) 2,893 ? -25.2°
